SEJ15 VOMM-VOBL

Flight info

Callsign SEJ15
Flight time 0h 35m
Altitude 16000
Route XIVIL2B/25 MMV W117 BIA
Aircraft DH8D/M-SDE2E3FGRY/H

Departure

Time 2026-04-26 07:28
Airport Chennai International Airport (VOMM)

Arrival

Time 2026-04-26 08:04
Airport Kempegowda International Airport Bengaluru (VOBL)
Time Latitude Longitude Altitude Speed Heading
2026-04-26 07:22 12.98557 80.16668 64 ft 0 kts 67°
2026-04-26 07:23 12.98559 80.16673 64 ft 4 kts 68°
2026-04-26 07:23 12.98580 80.16729 64 ft 10 kts 69°
2026-04-26 07:23 12.98651 80.16757 64 ft 16 kts 340°
2026-04-26 07:23 12.98751 80.16737 64 ft 15 kts 33°
2026-04-26 07:24 12.98801 80.16849 64 ft 19 kts 70°
2026-04-26 07:24 12.98853 80.16989 64 ft 22 kts 69°
2026-04-26 07:24 12.98890 80.17092 64 ft 15 kts 71°
2026-04-26 07:24 12.98936 80.17209 64 ft 19 kts 62°
2026-04-26 07:25 12.99009 80.17345 63 ft 23 kts 68°
2026-04-26 07:25 12.99070 80.17507 63 ft 25 kts 69°
2026-04-26 07:25 12.99118 80.17635 63 ft 13 kts 70°
2026-04-26 07:25 12.99156 80.17693 63 ft 9 kts 21°
2026-04-26 07:26 12.99219 80.17681 63 ft 9 kts 338°
2026-04-26 07:26 12.99278 80.17657 63 ft 7 kts 335°
2026-04-26 07:26 12.99289 80.17619 63 ft 0 kts 248°
2026-04-26 07:27 12.99255 80.17529 64 ft 49 kts 248°
2026-04-26 07:27 12.99011 80.16879 64 ft 137 kts 249°
2026-04-26 07:28 12.98656 80.15809 285 ft 169 kts 250°
2026-04-26 07:28 12.98319 80.14598 779 ft 185 kts 252°
2026-04-26 07:28 12.98006 80.13359 1652 ft 178 kts 261°
2026-04-26 07:28 12.98171 80.12114 2373 ft 180 kts 285°
2026-04-26 07:29 12.98547 80.10889 3087 ft 181 kts 286°
2026-04-26 07:29 12.98929 80.09635 3652 ft 195 kts 287°
2026-04-26 07:29 12.99365 80.08190 3946 ft 222 kts 287°
2026-04-26 07:29 12.99819 80.06666 4589 ft 226 kts 287°
2026-04-26 07:30 13.00282 80.05102 5273 ft 228 kts 287°
2026-04-26 07:30 13.00743 80.03540 5979 ft 228 kts 288°
2026-04-26 07:30 13.01207 80.01971 6592 ft 233 kts 289°
2026-04-26 07:30 13.01681 80.00372 7169 ft 238 kts 289°
2026-04-26 07:31 13.02165 79.98737 7783 ft 241 kts 290°
2026-04-26 07:31 13.02659 79.97075 8355 ft 245 kts 291°
2026-04-26 07:31 13.03160 79.95381 8908 ft 249 kts 291°
2026-04-26 07:31 13.03670 79.93662 9460 ft 252 kts 291°
2026-04-26 07:32 13.04180 79.91935 10058 ft 253 kts 291°
2026-04-26 07:32 13.04692 79.90200 10650 ft 254 kts 290°
2026-04-26 07:32 13.05213 79.88438 11254 ft 256 kts 290°
2026-04-26 07:32 13.05736 79.86674 11835 ft 259 kts 290°
2026-04-26 07:33 13.06264 79.84892 12434 ft 262 kts 290°
2026-04-26 07:33 13.06794 79.83099 13062 ft 263 kts 290°
2026-04-26 07:33 13.07333 79.81279 13705 ft 264 kts 290°
2026-04-26 07:33 13.07857 79.79483 14323 ft 267 kts 288°
2026-04-26 07:34 13.08328 79.77615 14958 ft 268 kts 286°
2026-04-26 07:34 13.08782 79.75742 15546 ft 273 kts 285°
2026-04-26 07:34 13.09267 79.73755 15788 ft 293 kts 285°
2026-04-26 07:34 13.09788 79.71635 15849 ft 316 kts 285°
2026-04-26 07:35 13.10309 79.69514 15853 ft 334 kts 285°
2026-04-26 07:35 13.10898 79.67120 15857 ft 350 kts 285°
2026-04-26 07:35 13.11511 79.64635 15867 ft 363 kts 285°
2026-04-26 07:35 13.12142 79.62071 15850 ft 373 kts 285°
2026-04-26 07:36 13.12787 79.59454 15839 ft 374 kts 285°
2026-04-26 07:36 13.13418 79.56873 15844 ft 366 kts 285°
2026-04-26 07:36 13.14041 79.54330 15825 ft 360 kts 285°
2026-04-26 07:36 13.14651 79.51846 15823 ft 355 kts 285°
2026-04-26 07:37 13.15254 79.49393 15831 ft 352 kts 285°
2026-04-26 07:37 13.15856 79.46946 15832 ft 350 kts 285°
2026-04-26 07:37 13.16463 79.44486 15838 ft 349 kts 285°
2026-04-26 07:37 13.17054 79.42089 15842 ft 348 kts 285°
2026-04-26 07:38 13.17647 79.39681 15845 ft 348 kts 285°
2026-04-26 07:38 13.18250 79.37237 15849 ft 347 kts 285°
2026-04-26 07:38 13.18842 79.34831 15850 ft 347 kts 285°
2026-04-26 07:38 13.19441 79.32403 15854 ft 346 kts 285°
2026-04-26 07:39 13.20037 79.29994 15858 ft 346 kts 285°
2026-04-26 07:39 13.20633 79.27587 15859 ft 346 kts 285°
2026-04-26 07:39 13.21230 79.25173 15869 ft 345 kts 285°
2026-04-26 07:39 13.21824 79.22774 15871 ft 345 kts 285°
2026-04-26 07:40 13.22420 79.20363 15865 ft 345 kts 285°
2026-04-26 07:40 13.23006 79.17989 15868 ft 344 kts 285°
2026-04-26 07:40 13.23605 79.15564 15876 ft 344 kts 285°
2026-04-26 07:40 13.24199 79.13160 15876 ft 344 kts 285°
2026-04-26 07:41 13.24789 79.10768 15876 ft 344 kts 285°
2026-04-26 07:41 13.25373 79.08402 15883 ft 344 kts 285°
2026-04-26 07:41 13.25966 79.05994 15884 ft 344 kts 285°
2026-04-26 07:41 13.26553 79.03612 15892 ft 344 kts 285°
2026-04-26 07:42 13.27143 79.01221 15890 ft 344 kts 285°
2026-04-26 07:42 13.27736 78.98813 15894 ft 343 kts 285°
2026-04-26 07:42 13.28329 78.96401 15906 ft 343 kts 285°
2026-04-26 07:42 13.28909 78.94041 15917 ft 342 kts 285°
2026-04-26 07:43 13.29411 78.91599 15913 ft 343 kts 278°
2026-04-26 07:43 13.29552 78.89173 15922 ft 343 kts 272°
2026-04-26 07:43 13.29622 78.86706 15938 ft 342 kts 272°
2026-04-26 07:43 13.29678 78.84242 15942 ft 343 kts 272°
2026-04-26 07:44 13.29721 78.82066 15948 ft 343 kts 271°
2026-04-26 07:44 13.29764 78.79597 15947 ft 343 kts 271°
2026-04-26 07:44 13.29802 78.77163 15957 ft 342 kts 271°
2026-04-26 07:44 13.29838 78.74686 15965 ft 342 kts 271°
2026-04-26 07:45 13.29871 78.72244 15971 ft 343 kts 271°
2026-04-26 07:45 13.29907 78.69720 15988 ft 357 kts 271°
2026-04-26 07:45 13.29944 78.67106 15988 ft 368 kts 271°
2026-04-26 07:45 13.29977 78.64434 15983 ft 377 kts 271°
2026-04-26 07:46 13.30010 78.61706 15983 ft 383 kts 271°
2026-04-26 07:46 13.30039 78.58988 15970 ft 376 kts 271°
2026-04-26 07:46 13.30065 78.56305 15971 ft 368 kts 271°
2026-04-26 07:46 13.30091 78.53678 15971 ft 362 kts 271°
2026-04-26 07:47 13.30116 78.51090 15978 ft 358 kts 271°
2026-04-26 07:47 13.30142 78.48539 15986 ft 354 kts 271°
2026-04-26 07:47 13.30167 78.46009 15986 ft 351 kts 271°
2026-04-26 07:47 13.30194 78.43493 15986 ft 349 kts 271°
2026-04-26 07:48 13.30224 78.40995 15994 ft 347 kts 271°
2026-04-26 07:48 13.30252 78.38503 15994 ft 345 kts 271°
2026-04-26 07:48 13.30277 78.36021 16000 ft 344 kts 271°
2026-04-26 07:48 13.30300 78.33549 16006 ft 343 kts 271°
2026-04-26 07:49 13.30322 78.31085 16006 ft 342 kts 271°
2026-04-26 07:49 13.30343 78.28643 16010 ft 341 kts 271°
2026-04-26 07:49 13.30363 78.26196 16012 ft 340 kts 270°
2026-04-26 07:50 13.30401 78.21312 16011 ft 339 kts 270°
2026-04-26 07:50 13.30421 78.18892 16013 ft 339 kts 271°
2026-04-26 07:50 13.30456 78.16447 16017 ft 338 kts 271°
2026-04-26 07:50 13.30493 78.14039 16009 ft 338 kts 271°
2026-04-26 07:51 13.30531 78.11603 16009 ft 337 kts 271°
2026-04-26 07:51 13.30568 78.09181 16021 ft 337 kts 271°
2026-04-26 07:51 13.30604 78.06755 16018 ft 336 kts 271°
2026-04-26 07:51 13.30640 78.04334 16025 ft 336 kts 271°
2026-04-26 07:52 13.30675 78.01913 16033 ft 335 kts 271°
2026-04-26 07:52 13.30709 77.99503 15963 ft 338 kts 271°
2026-04-26 07:52 13.30746 77.96986 15237 ft 361 kts 271°
2026-04-26 07:52 13.30782 77.94379 14569 ft 358 kts 271°
2026-04-26 07:53 13.30815 77.91836 14122 ft 358 kts 272°
2026-04-26 07:53 13.30850 77.89254 13719 ft 357 kts 272°
2026-04-26 07:53 13.30883 77.86716 13332 ft 356 kts 272°
2026-04-26 07:53 13.30918 77.84152 12945 ft 355 kts 272°
2026-04-26 07:54 13.30951 77.81583 12549 ft 355 kts 272°
2026-04-26 07:54 13.30984 77.79063 12164 ft 353 kts 272°
2026-04-26 07:54 13.31016 77.76509 11768 ft 352 kts 272°
2026-04-26 07:54 13.31037 77.73993 11381 ft 351 kts 272°
2026-04-26 07:55 13.31057 77.71478 10993 ft 348 kts 272°
2026-04-26 07:55 13.31077 77.68953 10598 ft 345 kts 272°
2026-04-26 07:55 13.31095 77.66486 10211 ft 343 kts 272°
2026-04-26 07:55 13.31114 77.64035 9831 ft 340 kts 272°
2026-04-26 07:56 13.31131 77.61593 9454 ft 335 kts 272°
2026-04-26 07:56 13.31143 77.59269 9080 ft 318 kts 272°
2026-04-26 07:56 13.31153 77.57046 8736 ft 302 kts 272°
2026-04-26 07:56 13.31165 77.54912 8409 ft 289 kts 272°
2026-04-26 07:57 13.31180 77.52863 8102 ft 285 kts 272°
2026-04-26 07:57 13.31197 77.50829 7785 ft 282 kts 272°
2026-04-26 07:57 13.31095 77.48823 7284 ft 282 kts 258°
2026-04-26 07:57 13.30137 77.47131 6934 ft 270 kts 221°
2026-04-26 07:58 13.28494 77.46345 6744 ft 252 kts 188°
2026-04-26 07:58 13.26758 77.46159 6567 ft 243 kts 181°
2026-04-26 07:58 13.25078 77.46051 6401 ft 235 kts 180°
2026-04-26 07:58 13.23452 77.45987 6274 ft 225 kts 175°
2026-04-26 07:59 13.22055 77.46461 6345 ft 206 kts 134°
2026-04-26 07:59 13.21385 77.47750 6365 ft 207 kts 99°
2026-04-26 07:59 13.21199 77.49262 6295 ft 216 kts 94°
2026-04-26 07:59 13.21091 77.50798 6173 ft 216 kts 92°
2026-04-26 08:00 13.21012 77.52360 6038 ft 218 kts 91°
2026-04-26 08:00 13.20951 77.53931 5813 ft 221 kts 91°
2026-04-26 08:00 13.20904 77.55514 5528 ft 220 kts 91°
2026-04-26 08:00 13.20870 77.57063 5214 ft 206 kts 90°
2026-04-26 08:01 13.20844 77.58459 4976 ft 185 kts 91°
2026-04-26 08:01 13.20820 77.59743 4713 ft 172 kts 90°
2026-04-26 08:01 13.20803 77.60912 4482 ft 157 kts 90°
2026-04-26 08:01 13.20787 77.62010 4295 ft 152 kts 92°
2026-04-26 08:02 13.20763 77.63124 4097 ft 157 kts 92°
2026-04-26 08:02 13.20747 77.64273 3875 ft 161 kts 90°
2026-04-26 08:02 13.20746 77.65443 3641 ft 163 kts 91°
2026-04-26 08:02 13.20733 77.66624 3410 ft 167 kts 92°
2026-04-26 08:03 13.20725 77.67844 3165 ft 166 kts 92°
2026-04-26 08:03 13.20711 77.68994 3004 ft 149 kts 91°
2026-04-26 08:03 13.20703 77.69907 3004 ft 98 kts 91°
2026-04-26 08:03 13.20696 77.70529 3004 ft 81 kts 91°
2026-04-26 08:04 13.20679 77.70874 3004 ft 26 kts 103°
2026-04-26 08:04 13.20615 77.71025 3004 ft 20 kts 121°
2026-04-26 08:04 13.20552 77.71135 3004 ft 15 kts 121°
2026-04-26 08:04 13.20520 77.71207 3004 ft 9 kts 99°
2026-04-26 08:05 13.20514 77.71264 3004 ft 6 kts 124°
2026-04-26 08:05 13.20473 77.71276 3004 ft 5 kts 180°
2026-04-26 08:05 13.20439 77.71276 3004 ft 4 kts 180°
2026-04-26 08:05 13.20400 77.71275 3004 ft 8 kts 181°
2026-04-26 08:06 13.20320 77.71275 3004 ft 9 kts 181°
2026-04-26 08:06 13.20273 77.71246 3004 ft 7 kts 257°
2026-04-26 08:06 13.20297 77.71216 3004 ft 6 kts 359°
2026-04-26 08:06 13.20330 77.71216 3004 ft 1 kts
2026-04-26 08:07 13.20331 77.71216 3004 ft 0 kts